YN7ZFC-13 Weather Reports


time (UTC)temp
C
wind
direction
speed
KPH
gust
KPH
rain 1hr
cm
rain 24hr
cm
rain mn
cm
humidity
%
barometer
mb
20260502233250 30 130 25.7 0.0 0.00 0.00 0.00 58 1008.0
20260502232249 33 120 24.1 0.0 0.00 0.00 0.00 42 1007.0
20260502231249 33 120 24.1 0.0 0.00 0.00 0.00 42 1007.0
20260502230249 33 120 24.1 0.0 0.00 0.00 0.00 42 1007.0
20260502225248 33 120 24.1 0.0 0.00 0.00 0.00 42 1007.0
20260502224247 33 120 24.1 0.0 0.00 0.00 0.00 42 1007.0
20260502223247 33 120 24.1 0.0 0.00 0.00 0.00 42 1007.0
20260502222247 33 120 24.1 0.0 0.00 0.00 0.00 42 1007.0
20260502221247 34 120 25.7 0.0 0.00 0.00 0.00 42 1007.0
20260502220246 34 120 25.7 0.0 0.00 0.00 0.00 42 1007.0
20260502215246 34 120 25.7 0.0 0.00 0.00 0.00 41 1007.0
20260502214245 34 120 25.7 0.0 0.00 0.00 0.00 42 1007.0
20260502213245 34 120 25.7 0.0 0.00 0.00 0.00 42 1007.0
20260502212245 34 120 17.7 0.0 0.00 0.00 0.00 43 1007.0
20260502211244 34 120 17.7 0.0 0.00 0.00 0.00 43 1007.0
20260502210244 34 120 17.7 0.0 0.00 0.00 0.00 43 1007.0
20260502205243 34 120 17.7 0.0 0.00 0.00 0.00 43 1007.0
20260502204243 34 120 17.7 0.0 0.00 0.00 0.00 43 1007.0
20260502203243 34 120 17.7 0.0 0.00 0.00 0.00 43 1007.0
20260502202243 34 120 17.7 0.0 0.00 0.00 0.00 43 1007.0
20260502201242 34 90 12.9 0.0 0.00 0.00 0.00 43 1007.0
20260502200242 34 90 12.9 0.0 0.00 0.00 0.00 43 1007.0
20260502195242 34 90 12.9 0.0 0.00 0.00 0.00 43 1007.0
20260502194241 34 90 12.9 0.0 0.00 0.00 0.00 44 1008.0
20260502193241 33 90 12.9 0.0 0.00 0.00 0.00 48 1008.0
20260502192241 33 90 12.9 0.0 0.00 0.00 0.00 48 1009.0
20260502191240 33 90 12.9 0.0 0.00 0.00 0.00 48 1009.0
20260502190240 33 90 12.9 0.0 0.00 0.00 0.00 48 1009.0
20260502185239 33 90 12.9 0.0 0.00 0.00 0.00 49 1009.0
20260502184239 33 90 12.9 0.0 0.00 0.00 0.00 50 1009.0
20260502183239 32 90 12.9 0.0 0.00 0.00 0.00 53 1009.0
20260502182238 32 90 12.9 0.0 0.00 0.00 0.00 53 1010.0
20260502181238 32 90 12.9 0.0 0.00 0.00 0.00 53 1010.0
20260502180238 32 90 12.9 0.0 0.00 0.00 0.00 53 1010.0
20260502170236 31 90 12.9 0.0 0.00 0.00 0.00 56 1011.0
20260502164235 30 90 12.9 0.0 0.00 0.00 0.00 59 1011.0
20260502163235 30 90 12.9 0.0 0.00 0.00 0.00 63 1011.0
20260502162234 28 90 12.9 0.0 0.00 0.00 0.00 69 1012.0
20260502161234 29 90 12.9 0.0 0.00 0.00 0.00 69 1012.0
20260502160234 28 90 12.9 0.0 0.00 0.00 0.00 69 1012.0
20260502152233 28 90 12.9 0.0 0.00 0.00 0.00 72 1012.0
20260502151232 27 90 12.9 0.0 0.00 0.00 0.00 72 1012.0
20260502150232 27 90 14.5 0.0 0.00 0.00 0.00 72 1012.0
20260502130228 24 140 17.7 0.0 0.00 0.00 0.00 85 1011.0
20260502123227 24 140 17.7 0.0 0.00 0.00 0.00 86 1012.0
20260502122227 24 140 17.7 0.0 0.00 0.00 0.00 87 1011.0
20260502121227 24 140 17.7 0.0 0.00 0.00 0.00 87 1011.0
20260502120226 24 140 17.7 0.0 0.00 0.00 0.00 87 1011.0
20260502115226 24 140 17.7 0.0 0.00 0.00 0.00 87 1011.0
20260502114226 24 140 17.7 0.0 0.00 0.00 0.00 87 1011.0
20260502113225 24 140 17.7 0.0 0.00 0.00 0.00 87 1011.0
20260502112225 24 140 17.7 0.0 0.00 0.00 0.00 87 1010.0
20260502111225 23 140 17.7 0.0 0.00 0.00 0.00 87 1010.0
20260502110224 24 140 17.7 0.0 0.00 0.00 0.00 87 1010.0
20260502105223 24 140 17.7 0.0 0.00 0.00 0.00 87 1010.0
20260502104223 24 140 17.7 0.0 0.00 0.00 0.00 87 1010.0
20260502103223 24 140 17.7 0.0 0.00 0.00 0.00 87 1010.0
20260502102223 24 140 17.7 0.0 0.00 0.00 0.00 87 1010.0
20260502101222 24 140 17.7 0.0 0.00 0.00 0.00 87 1010.0
20260502100222 24 140 17.7 0.0 0.00 0.00 0.00 87 1010.0
20260502091221 24 140 17.7 0.0 0.00 0.00 0.00 85 1010.0
20260502090220 24 140 17.7 0.0 0.00 0.00 0.00 85 1010.0
20260502071217 26 140 17.7 0.0 0.00 0.00 0.00 81 1010.0
20260502070216 26 140 17.7 0.0 0.00 0.00 0.00 81 1010.0
20260502065216 26 140 17.7 0.0 0.00 0.00 0.00 81 1010.0
20260502064215 26 140 17.7 0.0 0.00 0.00 0.00 80 1010.0
20260502063215 26 140 17.7 0.0 0.00 0.00 0.00 79 1010.0
20260502062214 26 140 17.7 0.0 0.00 0.00 0.00 79 1011.0
20260502061214 26 140 17.7 0.0 0.00 0.00 0.00 79 1011.0
20260502060214 26 140 17.7 0.0 0.00 0.00 0.00 79 1011.0
20260502055213 26 140 17.7 0.0 0.00 0.00 0.00 78 1011.0
20260502054213 26 140 17.7 0.0 0.00 0.00 0.00 76 1011.0
20260502053213 27 140 17.7 0.0 0.00 0.00 0.00 76 1011.0
20260502052213 26 140 17.7 0.0 0.00 0.00 0.00 76 1011.0
20260502051212 26 140 17.7 0.0 0.00 0.00 0.00 76 1011.0
20260502050212 26 140 17.7 0.0 0.00 0.00 0.00 76 1011.0
20260502045212 26 140 17.7 0.0 0.00 0.00 0.00 76 1011.0
20260502044211 26 140 17.7 0.0 0.00 0.00 0.00 75 1011.0
20260502043211 26 140 17.7 0.0 0.00 0.00 0.00 74 1011.0
20260502042211 26 140 17.7 0.0 0.00 0.00 0.00 73 1011.0
20260502041211 26 140 17.7 0.0 0.00 0.00 0.00 72 1011.0
20260502040210 27 140 17.7 0.0 0.00 0.00 0.00 72 1011.0
20260502035210 27 140 17.7 0.0 0.00 0.00 0.00 72 1011.0
20260502034210 27 140 17.7 0.0 0.00 0.00 0.00 72 1010.0
20260502033210 27 140 17.7 0.0 0.00 0.00 0.00 72 1010.0
20260502032209 27 140 17.7 0.0 0.00 0.00 0.00 72 1010.0
20260502031209 27 140 17.7 0.0 0.00 0.00 0.00 72 1010.0
20260502030209 27 140 17.7 0.0 0.00 0.00 0.00 72 1010.0
20260502025209 27 140 17.7 0.0 0.00 0.00 0.00 71 1010.0
20260502024208 27 140 17.7 0.0 0.00 0.00 0.00 71 1010.0
20260502023208 27 140 17.7 0.0 0.00 0.00 0.00 70 1010.0
20260502022207 27 140 17.7 0.0 0.00 0.00 0.00 70 1009.0
20260502021207 27 140 17.7 0.0 0.00 0.00 0.00 70 1009.0
20260502020207 28 140 17.7 0.0 0.00 0.00 0.00 70 1009.0
20260502015206 28 140 17.7 0.0 0.00 0.00 0.00 71 1009.0
20260502014206 28 140 17.7 0.0 0.00 0.00 0.00 71 1009.0
20260502013206 28 140 17.7 0.0 0.00 0.00 0.00 70 1009.0
20260502012205 28 140 17.7 0.0 0.00 0.00 0.00 69 1008.0
20260502011205 28 140 17.7 0.0 0.00 0.00 0.00 69 1008.0
20260502010205 28 140 17.7 0.0 0.00 0.00 0.00 69 1008.0
20260502005204 28 140 17.7 0.0 0.00 0.00 0.00 68 1008.0
20260502004205 28 140 17.7 0.0 0.00 0.00 0.00 67 1008.0
20260502003204 29 140 17.7 0.0 0.00 0.00 0.00 66 1008.0
20260502002204 29 140 17.7 0.0 0.00 0.00 0.00 66 1007.0
20260502001203 29 100 17.7 0.0 0.00 0.00 0.00 66 1007.0
20260502000204 29 100 17.7 0.0 0.00 0.00 0.00 66 1007.0
20260501235202 29 100 17.7 0.0 0.00 0.00 0.00 66 1007.0
20260501234202 29 100 17.7 0.0 0.00 0.00 0.00 66 1007.0